FDX419 LFPG-LIMC

Flight info

Callsign FDX419
Flight time N/A
Altitude 37000
Route OKASI DCT OKEKO DCT MOU DCT MADIV DCT MOKIP DCT TUFTA DCT GEVEA DCT MOBLO DCT LURAG DCT TOP M135 ASTIG
Aircraft MD11/H-SDE1E2E3FGHIJ2J3J4J5M1RWXY/LB1D1

Departure

Time 2026-05-01 14:38
Airport Charles de Gaulle International Airport (LFPG)

Arrival

Time N/A
Airport Milan Malpensa International Airport (LIMC)
Time Latitude Longitude Altitude Speed Heading
2026-05-01 14:08 48.99988 2.53471 362 ft 0 kts 321°
2026-05-01 14:19 48.99976 2.53485 362 ft 0 kts 321°
2026-05-01 14:22 48.99966 2.53498 366 ft 3 kts 323°
2026-05-01 14:22 48.99950 2.53515 365 ft 3 kts 329°
2026-05-01 14:22 48.99932 2.53530 368 ft 3 kts 339°
2026-05-01 14:23 48.99914 2.53539 365 ft 3 kts 358°
2026-05-01 14:23 48.99899 2.53539 362 ft 3 kts 32°
2026-05-01 14:23 48.99892 2.53535 362 ft 2 kts 78°
2026-05-01 14:23 48.99891 2.53524 368 ft 1 kts 84°
2026-05-01 14:29 48.99891 2.53526 362 ft 1 kts 84°
2026-05-01 14:30 48.99897 2.53779 362 ft 14 kts 86°
2026-05-01 14:30 48.99905 2.53950 365 ft 18 kts 85°
2026-05-01 14:30 48.99915 2.54127 369 ft 16 kts 85°
2026-05-01 14:31 48.99929 2.54411 367 ft 11 kts 85°
2026-05-01 14:31 48.99935 2.54520 362 ft 10 kts 85°
2026-05-01 14:31 48.99942 2.54638 365 ft 12 kts 85°
2026-05-01 14:31 48.99936 2.54766 364 ft 11 kts 119°
2026-05-01 14:32 48.99869 2.54818 368 ft 11 kts 167°
2026-05-01 14:32 48.99790 2.54838 368 ft 12 kts 164°
2026-05-01 14:32 48.99737 2.54898 366 ft 8 kts 125°
2026-05-01 14:32 48.99707 2.54984 367 ft 11 kts 115°
2026-05-01 14:33 48.99668 2.55108 367 ft 15 kts 115°
2026-05-01 14:33 48.99616 2.55262 368 ft 18 kts 121°
2026-05-01 14:33 48.99581 2.55409 364 ft 7 kts 89°
2026-05-01 14:33 48.99581 2.55460 364 ft 0 kts 85°
2026-05-01 14:37 48.99590 2.55649 364 ft 54 kts 85°
2026-05-01 14:37 48.99646 2.56665 363 ft 136 kts 85°
2026-05-01 14:38 48.99719 2.58428 468 ft 186 kts 90°
2026-05-01 14:38 48.99852 2.60395 1286 ft 183 kts 87°
2026-05-01 14:38 48.99972 2.62367 2022 ft 188 kts 89°
2026-05-01 14:38 49.00073 2.64360 2841 ft 190 kts 89°
2026-05-01 14:39 49.00175 2.66362 3577 ft 195 kts 87°
2026-05-01 14:39 49.00286 2.68585 3784 ft 226 kts 87°
2026-05-01 14:39 49.00412 2.71107 3928 ft 245 kts 86°
2026-05-01 14:39 49.00547 2.73730 4057 ft 258 kts 87°
2026-05-01 14:40 49.00670 2.76532 4352 ft 267 kts 91°
2026-05-01 14:40 49.00556 2.79348 4888 ft 267 kts 99°
2026-05-01 14:40 49.00296 2.82145 5816 ft 266 kts 100°
2026-05-01 14:40 49.00008 2.84935 6783 ft 267 kts 101°
2026-05-01 14:41 48.99712 2.87752 7692 ft 271 kts 101°
2026-05-01 14:41 48.99411 2.90602 8625 ft 274 kts 101°
2026-05-01 14:41 48.99105 2.93489 9560 ft 278 kts 102°
2026-05-01 14:41 48.98725 2.96419 10240 ft 291 kts 108°
2026-05-01 14:42 48.97874 2.99339 10519 ft 310 kts 127°
2026-05-01 14:42 48.96381 3.01692 11391 ft 311 kts 146°
2026-05-01 14:42 48.94412 3.03018 12286 ft 312 kts 168°
2026-05-01 14:42 48.92239 3.03042 13189 ft 317 kts 191°
2026-05-01 14:43 48.90146 3.01909 13995 ft 324 kts 202°
2026-05-01 14:43 48.88083 3.00477 14736 ft 327 kts 201°
2026-05-01 14:43 48.85960 2.99198 15512 ft 329 kts 197°
2026-05-01 14:43 48.83778 2.98137 16296 ft 331 kts 193°
2026-05-01 14:44 48.81544 2.97245 17052 ft 333 kts 191°
2026-05-01 14:44 48.76975 2.95759 18546 ft 339 kts 188°
2026-05-01 14:44 48.74641 2.95086 19187 ft 342 kts 188°
2026-05-01 14:45 48.72321 2.94444 19811 ft 345 kts 187°
2026-05-01 14:45 48.67556 2.93162 21062 ft 351 kts 187°
2026-05-01 14:45 48.65143 2.92522 21657 ft 354 kts 187°
2026-05-01 14:46 48.62706 2.91878 22250 ft 357 kts 187°
2026-05-01 14:46 48.57772 2.90577 23408 ft 363 kts 187°
2026-05-01 14:46 48.55275 2.89921 23923 ft 366 kts 187°
2026-05-01 14:47 48.52761 2.89260 24359 ft 368 kts 187°
2026-05-01 14:47 48.50229 2.88596 24811 ft 371 kts 187°
2026-05-01 14:47 48.47675 2.87926 25231 ft 373 kts 187°
2026-05-01 14:48 48.42528 2.86579 26069 ft 378 kts 186°
2026-05-01 14:48 48.39932 2.85900 26504 ft 380 kts 187°
2026-05-01 14:48 48.34690 2.84532 27343 ft 385 kts 187°
2026-05-01 14:49 48.29385 2.83151 28161 ft 390 kts 187°
2026-05-01 14:49 48.24006 2.81753 28977 ft 395 kts 187°
2026-05-01 14:50 48.20404 2.80819 29537 ft 398 kts 186°
2026-05-01 14:50 48.13094 2.78933 30536 ft 405 kts 187°
2026-05-01 14:51 48.10292 2.78350 30820 ft 408 kts 182°
2026-05-01 14:51 48.04634 2.79600 31072 ft 421 kts 160°
2026-05-01 14:52 47.99165 2.83167 31326 ft 437 kts 155°
2026-05-01 14:52 47.96390 2.85098 31461 ft 445 kts 156°
2026-05-01 14:52 47.90658 2.88937 31906 ft 454 kts 157°
2026-05-01 14:53 47.87755 2.90816 32262 ft 455 kts 158°
2026-05-01 14:53 47.84843 2.92678 32620 ft 456 kts 158°
2026-05-01 14:53 47.82909 2.93905 32855 ft 456 kts 158°
2026-05-01 14:53 47.79985 2.95757 33212 ft 456 kts 158°
2026-05-01 14:54 47.77075 2.97596 33654 ft 454 kts 158°
2026-05-01 14:54 47.74160 2.99437 33861 ft 458 kts 159°
2026-05-01 14:54 47.71210 3.01297 34033 ft 462 kts 160°
2026-05-01 14:54 47.68242 3.03167 34323 ft 463 kts 160°
2026-05-01 14:55 47.65277 3.05035 34612 ft 463 kts 160°
2026-05-01 14:55 47.62304 3.06906 34875 ft 463 kts 160°
2026-05-01 14:55 47.59340 3.08769 35140 ft 463 kts 160°
2026-05-01 14:55 47.56365 3.10636 35407 ft 464 kts 160°
2026-05-01 14:56 47.53396 3.12494 35628 ft 465 kts 160°
2026-05-01 14:56 47.50409 3.14353 35820 ft 466 kts 160°
2026-05-01 14:56 47.47415 3.16216 36072 ft 467 kts 160°
2026-05-01 14:56 47.44426 3.18076 36322 ft 467 kts 160°
2026-05-01 14:57 47.41431 3.19940 36563 ft 466 kts 160°
2026-05-01 14:57 47.35454 3.23658 36951 ft 467 kts 160°
2026-05-01 14:57 47.32450 3.25524 36969 ft 470 kts 161°
2026-05-01 14:58 47.26390 3.29280 36987 ft 474 kts 161°
2026-05-01 14:58 47.20305 3.33044 36985 ft 474 kts 161°
2026-05-01 14:59 47.14220 3.36800 36986 ft 474 kts 161°
2026-05-01 14:59 47.08128 3.40548 36981 ft 475 kts 161°
2026-05-01 15:00 46.98970 3.46167 36984 ft 475 kts 161°
2026-05-01 15:01 46.92861 3.49903 36986 ft 475 kts 161°
2026-05-01 15:01 46.86749 3.53630 36993 ft 478 kts 161°
2026-05-01 15:02 46.80629 3.57486 36981 ft 480 kts 156°
2026-05-01 15:02 46.75025 3.62851 36969 ft 487 kts 141°
2026-05-01 15:03 46.70617 3.70384 36970 ft 493 kts 124°
2026-05-01 15:03 46.67724 3.79476 36990 ft 498 kts 109°
2026-05-01 15:04 46.66024 3.89267 36984 ft 500 kts 104°
2026-05-01 15:04 46.64502 3.99156 36978 ft 500 kts 104°
2026-05-01 15:05 46.62882 4.08925 36979 ft 499 kts 105°
2026-05-01 15:05 46.61195 4.18657 36981 ft 498 kts 106°
2026-05-01 15:06 46.59480 4.28425 36985 ft 498 kts 106°
2026-05-01 15:06 46.57764 4.38180 36989 ft 498 kts 106°
2026-05-01 15:07 46.56045 4.47905 36985 ft 497 kts 106°
2026-05-01 15:07 46.54318 4.57635 36990 ft 497 kts 106°
2026-05-01 15:08 46.52585 4.67339 36991 ft 497 kts 106°
2026-05-01 15:08 46.50841 4.77052 36991 ft 497 kts 106°
2026-05-01 15:09 46.49096 4.86718 36984 ft 496 kts 106°
2026-05-01 15:09 46.47335 4.96420 36989 ft 496 kts 106°
2026-05-01 15:10 46.45571 5.06092 36979 ft 496 kts 106°
2026-05-01 15:10 46.42861 5.20571 36995 ft 496 kts 106°
2026-05-01 15:11 46.40181 5.34970 36997 ft 495 kts 106°
2026-05-01 15:12 46.38392 5.44600 37002 ft 495 kts 106°
2026-05-01 15:12 46.35704 5.59049 37003 ft 495 kts 106°
2026-05-01 15:14 46.31216 5.83045 37010 ft 494 kts 105°
2026-05-01 15:14 46.28505 5.97397 37007 ft 494 kts 106°
2026-05-01 15:15 46.23705 6.15759 37007 ft 488 kts 126°
2026-05-01 15:16 46.19068 6.22828 37004 ft 486 kts 141°
2026-05-01 15:16 46.13831 6.29063 37010 ft 488 kts 141°
2026-05-01 15:18 46.01229 6.45451 37019 ft 487 kts 137°
2026-05-01 15:19 45.91299 6.58695 37032 ft 489 kts 138°
2026-05-01 15:19 45.83810 6.68613 37041 ft 489 kts 138°
2026-05-01 15:20 45.76323 6.78408 37057 ft 485 kts 138°
2026-05-01 15:21 45.71312 6.84922 36786 ft 486 kts 138°
2026-05-01 15:21 45.68806 6.88181 36412 ft 488 kts 138°
2026-05-01 15:21 45.66290 6.91452 35908 ft 488 kts 138°
2026-05-01 15:21 45.63788 6.94704 35344 ft 488 kts 138°
2026-05-01 15:22 45.58751 7.01236 34195 ft 489 kts 138°
2026-05-01 15:22 45.56228 7.04502 33594 ft 489 kts 138°
2026-05-01 15:22 45.53716 7.07749 32988 ft 487 kts 138°
2026-05-01 15:23 45.51232 7.10966 32427 ft 489 kts 138°
2026-05-01 15:23 45.48685 7.14273 31804 ft 489 kts 137°
2026-05-01 15:23 45.46206 7.17500 31228 ft 489 kts 137°
2026-05-01 15:23 45.43692 7.20774 30526 ft 490 kts 137°
2026-05-01 15:24 45.41172 7.24053 29747 ft 491 kts 137°
2026-05-01 15:24 45.38660 7.27320 29028 ft 488 kts 137°
2026-05-01 15:24 45.36169 7.30554 28338 ft 483 kts 137°
2026-05-01 15:24 45.33695 7.33762 27660 ft 477 kts 137°
2026-05-01 15:25 45.31259 7.36917 27000 ft 471 kts 137°
2026-05-01 15:25 45.28847 7.40036 26346 ft 466 kts 137°
2026-05-01 15:25 45.26471 7.43104 25692 ft 459 kts 137°
2026-05-01 15:25 45.24132 7.46122 25067 ft 454 kts 137°
2026-05-01 15:26 45.21811 7.49111 24438 ft 448 kts 136°
2026-05-01 15:26 45.19516 7.52065 23841 ft 442 kts 137°
2026-05-01 15:26 45.17256 7.54971 23145 ft 435 kts 137°
2026-05-01 15:26 45.15027 7.57833 22507 ft 430 kts 136°
2026-05-01 15:27 45.12821 7.60663 21902 ft 425 kts 136°
2026-05-01 15:27 45.10668 7.63422 21323 ft 421 kts 137°
2026-05-01 15:27 45.08495 7.66204 20725 ft 417 kts 137°
2026-05-01 15:28 45.04219 7.71670 19589 ft 412 kts 137°
2026-05-01 15:28 45.02098 7.74377 18998 ft 408 kts 137°
2026-05-01 15:28 44.99997 7.77056 18385 ft 404 kts 137°
2026-05-01 15:29 44.95875 7.82342 17216 ft 397 kts 134°
2026-05-01 15:29 44.94088 7.85286 16613 ft 393 kts 122°
2026-05-01 15:29 44.92543 7.92466 15507 ft 384 kts 91°
2026-05-01 15:30 44.92765 7.98689 14597 ft 380 kts 84°
2026-05-01 15:31 44.93631 8.14424 12860 ft 354 kts 86°
2026-05-01 15:31 44.93893 8.21011 12635 ft 320 kts 86°
2026-05-01 15:32 44.94119 8.27013 12281 ft 297 kts 85°
2026-05-01 15:32 44.94909 8.32696 11319 ft 295 kts 74°
2026-05-01 15:33 44.96580 8.41104 9829 ft 297 kts 74°
2026-05-01 15:34 44.98657 8.48700 8910 ft 250 kts 44°